{"data":{"norad_id":68749,"intl_designator":"2026-082X","name":"STARLINK-37324","alt_names":[],"object_type":"PAYLOAD","status":"ACTIVE","operator":null,"country":"US","launch_date":"2026-04-15","launch_site_code":"AFWTR","launch_vehicle":null,"mission":null,"orbit_class":"UNKNOWN","rcs_meters":null,"size_class":null,"mass_kg":null,"dimensions":null,"purposes":["comms"],"wikipedia_slug":null,"has_3d_model":false,"image_url":null,"decayed_at":null,"tle_current":{"epoch":"2026-09-19T21:11:08.385216Z","epoch_age_seconds":94676,"freshness":"FRESH","line1":"1 68749U 26082X   26262.88273594  .00012726  00000+0  39575-3 0  9995","line2":"2 68749  97.2862 125.0866 0002234  92.2139 267.9359 15.33450779 24219","mean_motion":15.33450779,"eccentricity":0.0002234,"inclination_deg":97.2862,"raan_deg":125.0866,"arg_perigee_deg":92.2139,"mean_anomaly_deg":267.9359,"bstar":0.00039575,"rev_number":2421,"period_min":93.905850759622,"perigee_km":463.99710598421,"apogee_km":467.0548546038,"semimajor_km":6843.662980294,"source":"CELESTRAK","updated_at":"2026-09-20T09:00:43.995519Z"}}}